x

Gravelly Shoals Light Mi (gslm4) Weather Station

2:15am - Sat 29th Nov 2014 All times are CST. -6 hours from GMT.

  • Wind
    22mph, 25mph gusts
  • Air Temp 28°f
  • Sea Pressure 1015.9mb
  • Gravelly Shoals Light Mi
  • Gravelly Shoals Light Mi

More Historic Weather Station data

Upgrade to MSW Pro to gain access to the past 30 days of data for over 8000 Wavebouys and Weather Stations around the globe.

Join Pro

Comparision Forecast

View Surf forecast
   
Sat 11/29 2:15am 22 25 mph 1015.9mb 28f
1:40am 21 24 mph 1016.3mb 28f
1:30am 20 24 mph 1016.3mb 28f
1:20am 22 24 mph 1016.3mb 28f
1:15am 22 29 mph 1016.3mb 28f
1:10am 21 28 mph 1016.3mb 28f
1:00am 21 29 mph 1016.3mb 28f
12:40am 22 25 mph 1016.6mb 28f
12:30am 21 25 mph 1016.6mb 27f
12:20am 20 26 mph 1016.9mb 27f
12:14am 21 25 mph 1016.9mb 27f
12:10am 21 24 mph 1016.9mb 27f
12:00am 20 23 mph 1017.3mb 27f
Fri 11/28 11:40pm 20 23 mph 1017.3mb 26f
11:30pm 20 23 mph 1017.3mb 26f
11:20pm 18 21 mph 1017.6mb 26f
11:14pm 17 22 mph 1017.9mb 26f
11:10pm 18 22 mph 1017.9mb 26f
11:00pm 20 21 mph 1018.3mb 26f
10:40pm 18 21 mph 1018.3mb 25f
10:30pm 18 20 mph 1018.6mb 25f
10:20pm 17 20 mph 1018.6mb 25f
10:13pm 18 23 mph 1018.6mb 25f
10:10pm 17 23 mph 1018.6mb 25f
10:00pm 17 21 mph 1019mb 25f
9:40pm 18 20 mph 1019.3mb 25f
9:30pm 16 20 mph 1019.3mb 25f
9:20pm 18 21 mph 1019.3mb 25f
9:13pm 17 23 mph 1019.3mb 25f
9:10pm 18 20 mph 1019.3mb 25f
9:00pm 15 20 mph 1019.6mb 24f
8:40pm 18 22 mph 1019.6mb 24f
8:30pm 18 22 mph 1019.6mb 24f
8:20pm 20 23 mph 1019.6mb 24f
8:13pm 18 24 mph 1019.6mb 24f
8:10pm 21 24 mph 1019.6mb 24f
8:00pm 20 23 mph 1019.6mb 24f
7:40pm 20 23 mph 1019.6mb 24f
7:30pm 20 22 mph 1019.6mb 24f
7:20pm 20 23 mph 1020mb 24f
7:12pm 20 23 mph 1020mb 24f
7:10pm 20 23 mph 1020mb 24f
7:00pm 20 22 mph 1020mb 24f
6:40pm 18 22 mph 1020.3mb 24f
6:30pm 20 21 mph 1020.3mb 24f
6:20pm 20 23 mph 1020.3mb 24f
6:12pm 18 24 mph 1020.3mb 24f
6:10pm 20 23 mph 1020.3mb 24f
6:00pm 20 24 mph 1020.3mb 24f
5:30pm 18 22 mph 1020.3mb 24f
5:20pm 20 23 mph 1020.3mb 24f
5:11pm 20 22 mph 1020.7mb 24f
5:10pm 20 22 mph 1020.7mb 24f
5:00pm 18 22 mph 1020.7mb 24f
4:40pm 15 20 mph 1021mb 24f
4:30pm 17 20 mph 1021mb 24f
4:20pm 16 20 mph 1021mb 24f
4:11pm 15 20 mph 1021mb 24f
4:10pm 15 20 mph 1021mb 24f
4:00pm 14 17 mph 1021.3mb 24f
3:40pm 8 15 mph 1021.3mb 24f
3:30pm 7 13 mph 1021.7mb 24f
3:20pm 10 16 mph 1021.7mb 23f
3:11pm 13 17 mph 1021.7mb 24f
3:10pm 13 17 mph 1021.7mb 24f
3:00pm 10 15 mph 1021.7mb 24f
2:40pm 3 17 mph 1021.7mb 24f
2:30pm 2 8 mph 1021.7mb 24f
2:20pm 6 14 mph 1021.7mb 24f
2:10pm 2 11 mph 1022mb 24f
2:00pm 2 15 mph 1022mb 24f
1:40pm 7 15 mph 1022.4mb 23f
1:30pm 16 18 mph 1022.4mb 23f
1:20pm 9 20 mph 1022.4mb 23f
1:10pm 10 21 mph 1022.7mb 23f
1:00pm 11 17 mph 1022.7mb 23f
12:40pm 16 21 mph 1023mb 22f
12:30pm 14 18 mph 1023mb 22f
12:20pm 7 16 mph 1023mb 22f
12:10pm 16 20 mph 1023.4mb 22f
12:09pm 10 22 mph 1023.4mb 22f
12:00pm 2 18 mph 1023.4mb 22f
11:40am 10 22 mph 1023.7mb 22f
11:30am 3 18 mph 1024mb 22f
11:20am 11 17 mph 1024mb 22f
11:10am 13 16 mph 1024.4mb 22f
11:09am 13 18 mph 1024.4mb 22f
11:00am 14 18 mph 1024.7mb 22f
10:40am 7 17 mph 1024.7mb 22f
10:30am 10 16 mph 1024.7mb 22f
10:20am 10 16 mph 1024.7mb 21f
10:10am 5 15 mph 1024.7mb 21f
10:09am 9 15 mph 1024.7mb 21f
10:00am 9 14 mph 1025.1mb 21f
9:40am 8 13 mph 1025.4mb 21f
9:30am 7 14 mph 1025.4mb 20f
9:20am 11 14 mph 1025.4mb 20f
9:10am 7 14 mph 1025.4mb 20f
9:08am 11 14 mph 1025.7mb 20f
9:00am 9 13 mph 1025.7mb 20f
8:40am 8 14 mph 1025.7mb 20f
8:30am 10 13 mph 1026.1mb 20f
8:20am 10 14 mph 1026.1mb 20f
8:10am 10 14 mph 1025.7mb 19f
8:08am 13 16 mph 1026.1mb 19f
8:00am 11 14 mph 1026.1mb 19f
7:40am 10 16 mph 1026.1mb 19f
7:30am 13 16 mph 1026.4mb 19f
7:20am 14 16 mph 1026.4mb 19f
7:10am 14 17 mph 1026.4mb 19f
7:07am 14 18 mph 1026.4mb 19f
7:00am 14 17 mph 1026.4mb 19f
6:40am 15 17 mph 1026.4mb 19f
6:30am 15 17 mph 1026.8mb 19f
6:20am 16 18 mph 1026.4mb 19f
6:10am 16 21 mph 1026.4mb 19f
6:07am 16 21 mph 1026.4mb 19f
6:00am 15 17 mph 1026.4mb 19f
5:40am 14 18 mph 1026.4mb 19f
5:30am 13 17 mph 1026.4mb 19f
5:20am 16 20 mph 1026.8mb 19f
5:10am 16 20 mph 1026.8mb 19f
5:07am 14 21 mph 1026.8mb 19f
5:00am 14 18 mph 1026.8mb 19f
4:40am 16 21 mph 1026.8mb 19f
4:30am 15 21 mph 1026.8mb 19f
4:20am 11 21 mph 1026.8mb 19f
4:10am 14 21 mph 1027.1mb 19f
4:06am 15 22 mph 1027.1mb 19f
4:00am 16 20 mph 1026.8mb 19f
3:40am 16 20 mph 1026.8mb 19f
3:30am 16 22 mph 1026.8mb 19f
3:20am 17 22 mph 1026.8mb 19f
3:10am 17 20 mph 1026.8mb 19f
3:06am 15 20 mph 1026.8mb 19f
3:00am 16 20 mph 1026.8mb 19f
2:50am 15 18 mph 1026.8mb 19f
2:40am 14 18 mph 1026.8mb 19f
2:30am 14 16 mph 1026.8mb 19f
2:20am 10 15 mph 1026.8mb 19f
2:10am 13 16 mph 1026.8mb 19f
2:05am 14 18 mph 1026.4mb 19f
2:00am 11 16 mph 1026.8mb 18f
1:50am 11 17 mph 1026.4mb 18f
1:40am 15 16 mph 1026.4mb 18f
1:30am 13 17 mph 1026.4mb 19f
1:20am 15 18 mph 1026.4mb 19f
1:10am 13 17 mph 1026.4mb 19f
1:05am 14 17 mph 1026.1mb 18f
1:00am 14 16 mph 1026.4mb 19f
12:50am 11 17 mph 1026.1mb 19f
12:40am 13 16 mph 1026.1mb 18f
12:30am 13 16 mph 1026.1mb 18f
12:20am 14 17 mph 1026.1mb 18f
12:10am 14 16 mph 1026.1mb 18f
12:05am 14 18 mph 1026.1mb 18f
12:00am 14 16 mph 1026.1mb 18f
Thu 11/27 11:50pm 13 14 mph 1025.7mb 18f
11:40pm 10 16 mph 1025.7mb 18f
11:30pm 14 16 mph 1025.7mb 18f
11:20pm 14 16 mph 1025.7mb 19f
11:10pm 15 18 mph 1026.1mb 19f
11:04pm 15 21 mph 1026.1mb 19f
11:00pm 15 21 mph 1026.1mb 19f
10:50pm 16 21 mph 1026.1mb 19f
10:40pm 15 16 mph 1026.1mb 19f
10:30pm 15 16 mph 1026.1mb 19f
10:20pm 14 17 mph 1026.4mb 19f
10:10pm 15 20 mph 1026.4mb 19f
10:04pm 16 21 mph 1026.4mb 19f
10:00pm 17 21 mph 1026.4mb 19f
9:50pm 15 21 mph 1026.1mb 19f
9:40pm 15 18 mph 1026.1mb 19f
9:30pm 17 20 mph 1026.1mb 19f
9:20pm 16 20 mph 1026.4mb 19f
9:10pm 13 20 mph 1026.1mb 19f
9:03pm 16 20 mph 1026.1mb 19f
9:00pm 14 18 mph 1026.1mb 19f
8:50pm 15 18 mph 1026.1mb 19f
8:40pm 14 18 mph 1026.1mb 19f
8:30pm 15 18 mph 1026.1mb 19f
8:20pm 14 18 mph 1026.1mb 20f
8:10pm 14 20 mph 1026.1mb 20f
8:03pm 17 25 mph 1025.7mb 20f
8:00pm 15 21 mph 1025.7mb 20f
7:50pm 17 22 mph 1025.7mb 20f
7:40pm 16 20 mph 1025.7mb 21f
7:30pm 18 25 mph 1025.4mb 21f
7:20pm 20 24 mph 1025.4mb 21f
7:10pm 20 24 mph 1025.4mb 22f
7:03pm 21 26 mph 1025.4mb 22f
7:00pm 22 25 mph 1025.1mb 22f
6:50pm 23 26 mph 1025.1mb 22f
6:40pm 20 25 mph 1025.1mb 22f
6:30pm 20 24 mph 1025.1mb 22f
6:20pm 20 26 mph 1025.1mb 22f
6:10pm 20 25 mph 1025.1mb 22f
6:02pm 18 24 mph 1025.1mb 23f
6:00pm 18 22 mph 1025.1mb 23f
5:50pm 21 28 mph 1024.7mb 23f
5:30pm 22 29 mph 1024.7mb 23f
5:20pm 23 26 mph 1024.4mb 23f
5:10pm 21 28 mph 1024.4mb 23f
5:02pm 21
mph
1024.4mb 24f
5:00pm 22 26 mph 1024.4mb 24f
4:50pm 24 29 mph 1024.4mb 24f
4:49pm 22 29 mph 1024mb 24f
4:40pm 18 21 mph 1024mb 24f
4:30pm 18 26 mph 1024mb 24f
4:20pm 22 28 mph 1024mb 24f
4:10pm 22 26 mph 1023.7mb 24f
4:01pm 21 29 mph 1023.7mb 25f
4:00pm 21 25 mph 1023.7mb 25f
3:50pm 20 26 mph 1023.4mb 25f
3:40pm 22 26 mph 1023.4mb 26f
3:30pm 25 29 mph 1023.4mb 26f
3:20pm 20 26 mph 1023mb 26f
3:10pm 22 25 mph 1023mb 26f
3:01pm 21 28 mph 1022.7mb 26f
3:00pm 21 25 mph 1022.7mb 26f
2:50pm 23 28 mph 1022.7mb 26f
2:40pm 23 25 mph 1022.7mb 26f
2:30pm 17 21 mph 1022.7mb 27f
2:20pm 16 20 mph 1022.4mb 26f
2:10pm 16 24 mph 1022.4mb 26f
2:00pm 21 24 mph 1022.4mb 27f
1:50pm 21 30 mph 1022mb 26f
1:40pm 23 31 mph 1022mb 26f
1:30pm 26 29 mph 1022mb 26f
1:20pm 26 30 mph 1021.7mb 26f
1:10pm 25 29 mph 1021.7mb 26f
1:09pm 25 29 mph 1021.7mb 27f
1:00pm 21 28 mph 1021.7mb 27f
12:50pm 24 28 mph 1021.7mb 27f
12:40pm 22 25 mph 1021.7mb 27f
12:30pm 20 24 mph 1021.3mb 27f
12:20pm 18 23 mph 1021.3mb 27f
12:10pm 17 23 mph 1021.3mb 27f
12:00pm 18 22 mph 1021.3mb 27f
11:50am 20 25 mph 1021.3mb 27f
11:40am 22 25 mph 1021.3mb 26f
11:30am 21 24 mph 1021mb 27f
11:20am 20 24 mph 1021mb 27f
11:10am 22 24 mph 1021.3mb 27f
11:00am 15 18 mph 1021mb 27f
10:50am 16 23 mph 1021.3mb 27f
10:45am 20 26 mph 1021.3mb 27f
10:40am 23 26 mph 1021.3mb 27f
10:30am 20 24 mph 1021.3mb 27f
10:20am 23 24 mph 1021.3mb 28f
10:10am 21 23 mph 1021.3mb 28f
10:00am 16 23 mph 1021mb 28f
9:50am 20 22 mph 1021mb 28f
9:44am 18 23 mph 1021mb 28f
9:40am 20 23 mph 1021mb 28f
9:30am 18 23 mph 1021mb 28f
9:20am 17 22 mph 1020.7mb 28f
9:10am 17 22 mph 1020.7mb 28f
9:00am 18 22 mph 1020.7mb 28f
8:50am 20 22 mph 1020.7mb 28f
8:44am 18 24 mph 1020.7mb 28f
8:40am 20 24 mph 1020.3mb 28f
8:30am 20 22 mph 1020.3mb 27f
8:20am 15 20 mph 1020.3mb 27f
8:10am 15 17 mph 1020.3mb 27f
8:00am 16 20 mph 1020.3mb 27f
7:50am 16 20 mph 1020.3mb 27f
7:44am 17 20 mph 1020mb 27f
7:40am 16 20 mph 1020mb 27f
7:30am 15 20 mph 1020mb 27f
7:20am 15 18 mph 1020mb 27f
7:10am 15 17 mph 1020mb 27f
7:00am 15 18 mph 1020mb 27f
6:50am 13 16 mph 1020mb 27f
6:43am 14 18 mph 1020mb 27f
6:40am 14 18 mph 1020mb 27f
6:30am 14 17 mph 1020mb 27f
6:20am 14 17 mph 1020mb 27f
6:10am 16 17 mph 1020mb 28f
6:00am 14 17 mph 1019.6mb 28f
5:50am 14 16 mph 1019.6mb 28f
5:43am 14 16 mph 1019.6mb 28f
5:40am 14 16 mph 1019.6mb 28f
5:30am 13 15 mph 1019.6mb 28f
5:20am 13 15 mph 1019.6mb 28f
5:10am 10 15 mph 1019.6mb 28f
5:00am 13 14 mph 1019.6mb 28f
4:50am 10 14 mph 1019.6mb 28f
4:42am 11 16 mph 1019.6mb 28f
4:40am 13 15 mph 1019.6mb 28f
4:30am 13 14 mph 1019.6mb 28f
4:20am 10 13 mph 1019.6mb 28f
4:10am 10 11 mph 1019.3mb 28f
4:00am 10 14 mph 1019.3mb 28f
3:50am 13 16 mph 1019.6mb 28f
3:42am 13 16 mph 1019.3mb 28f
3:40am 13 15 mph 1019.3mb 28f
3:30am 13 15 mph 1019.3mb 28f
3:20am 13 16 mph 1019.3mb 28f
3:10am 13 16 mph 1019.6mb 28f
3:00am 13 15 mph 1019.6mb 28f
2:50am 10 16 mph 1019.3mb 28f
2:42am 13 16 mph 1019.6mb 28f
2:40am 14 15 mph 1019.6mb 28f
2:30am 14 16 mph 1019.6mb 28f
2:20am 14 15 mph 1019.6mb 28f
2:10am 13 15 mph 1019.6mb 28f
2:00am 11 16 mph 1019.6mb 28f
1:50am 14 16 mph 1019.6mb 28f
1:41am 11 17 mph 1019.6mb 28f
1:40am 11 14 mph 1019.6mb 28f
1:30am 13 17 mph 1019.6mb 28f
1:20am 15 17 mph 1019.6mb 28f
1:10am 14 16 mph 1019.6mb 28f
1:00am 14 15 mph 1019.6mb 28f
12:50am 11 14 mph 1019.6mb 28f
12:41am 10 14 mph 1019.6mb 28f
12:40am 10 13 mph 1019.6mb 28f
12:30am 10 11 mph 1020mb 28f
12:20am 10 11 mph 1020mb 28f
12:10am 9 13 mph 1020mb 28f
12:00am 11 14 mph 1020mb 28f
Wed 11/26 11:50pm 11 13 mph 1020mb 28f
11:40pm 9 11 mph 1020mb 28f
11:30pm 9 11 mph 1020mb 28f
11:20pm 9 11 mph 1020mb 28f
11:10pm 10 11 mph 1020.3mb 28f
11:00pm 9 11 mph 1020mb 28f
10:50pm 9 10 mph 1020mb 28f
10:40pm 8 10 mph 1020mb 28f
10:30pm 8 9 mph 1020mb 28f
10:20pm 7 9 mph 1020mb 28f
10:10pm 8 10 mph 1020mb 28f
10:00pm 7 9 mph 1020mb 28f
9:50pm 7 10 mph 1020mb 28f
9:40pm 9 13 mph 1020mb 28f
9:30pm 9 11 mph 1020mb 28f
9:20pm 11 13 mph 1020mb 28f
9:10pm 10 13 mph 1020mb 28f
9:00pm 11 14 mph 1020mb 28f
8:50pm 9 14 mph 1020mb 28f
8:40pm 13 14 mph 1019.6mb 28f
8:30pm 9 14 mph 1019.6mb 28f
8:27pm 11 17 mph 1019.6mb 28f
8:20pm 11 14 mph 1019.6mb 28f
8:10pm 11 15 mph 1020mb 28f
8:00pm 13 15 mph 1020mb 28f
7:50pm 13 16 mph 1020mb 28f
7:40pm 14 17 mph 1020mb 28f
7:30pm 15 18 mph 1020mb 28f
7:27pm 16 18 mph 1020mb 28f
7:20pm 14 16 mph 1020mb 29f
7:10pm 11 14 mph 1020mb 29f
7:00pm 13 14 mph 1020.3mb 29f
6:50pm 11 14 mph 1020.3mb 29f
6:40pm 11 13 mph 1020.3mb 29f
6:30pm 11 14 mph 1020.3mb 29f
6:27pm 13 14 mph 1020.3mb 29f
6:20pm 13 14 mph 1020.7mb 29f
6:10pm 11 14 mph 1020.7mb 29f
6:00pm 13 14 mph 1020.7mb 29f
5:50pm 10 11 mph 1020.7mb 29f
5:30pm 9 11 mph 1021mb 29f
5:26pm 9 13 mph 1021mb 29f
5:20pm 10 11 mph 1021mb 29f
5:10pm 9 13 mph 1021mb 29f
5:00pm 10 11 mph 1021mb 29f
4:50pm 9 11 mph 1021.3mb 29f
4:40pm 10 13 mph 1021.3mb 29f
4:30pm 10 13 mph 1021mb 30f
4:26pm 10 13 mph 1021.3mb 30f
4:20pm 9 13 mph 1021.3mb 30f
4:10pm 9 10 mph 1021.3mb 30f
4:00pm 8 10 mph 1021.3mb 30f
3:50pm 10
mph
1021.3mb 30f
3:40pm 8 9 mph 1021.3mb 30f
3:30pm 6 8 mph 1021.3mb 30f
3:25pm 6 8 mph 1021.3mb 30f
3:20pm 7 8 mph 1021.3mb 30f
3:10pm 3 6 mph 1021.3mb 30f
3:00pm 5 7 mph 1021.3mb 30f
2:50pm 3 5 mph 1021.3mb 30f
2:40pm 3 6 mph 1021.3mb 30f
2:30pm 5 6 mph 1021.3mb 30f
2:25pm 3 7 mph 1021.3mb 30f
2:20pm 3 5 mph 1021.3mb 30f
2:10pm 3 5 mph 1021.3mb 30f
2:00pm 3 5 mph 1021.3mb 30f
1:50pm 2 7 mph 1021.3mb 30f
1:40pm 5 7 mph 1021.3mb 30f
1:30pm 5 6 mph 1021.3mb 30f
1:24pm 3 7 mph 1021.3mb 30f
1:20pm 5 6 mph 1021.3mb 30f
1:10pm 3 6 mph 1021.3mb 30f
1:00pm 5 6 mph 1021mb 30f
12:50pm 6 7 mph 1021mb 30f
12:40pm 3 6 mph 1021mb 30f
12:30pm 2 5 mph 1020.7mb 30f
12:24pm 2 6 mph 1020.7mb 30f
12:20pm 2 3 mph 1020.7mb 30f
12:10pm 2 5 mph 1020.7mb 30f
12:00pm 2 3 mph 1020.7mb 30f
11:50am 2 5 mph 1021mb 30f
11:40am 1 3 mph 1021.3mb 29f
11:30am 2 6 mph 1021.3mb 29f
11:24am 3 7 mph 1021.3mb 29f
11:20am 3 6 mph 1021.7mb 29f
11:10am 3 6 mph 1021.7mb 29f
11:00am 5 6 mph 1022mb 29f
10:50am 2 7 mph 1022.4mb 29f
10:40am 3 6 mph 1022.4mb 29f
10:30am 2 6 mph 1022.4mb 29f
10:20am 2 5 mph 1022.4mb 29f
10:10am 3 6 mph 1022.4mb 29f
10:00am 3 5 mph 1022.4mb 29f
9:50am 3 6 mph 1022.4mb 29f
9:40am 3 7 mph 1022.7mb 29f
9:30am 5 6 mph 1022.7mb 29f
9:23am 5 8 mph 1022.7mb 29f
9:20am 5 7 mph 1022.7mb 29f
9:10am 6 7 mph 1023mb 29f
9:00am 3 6 mph 1023mb 29f
8:50am 6 8 mph 1023mb 29f
8:40am 6 8 mph 1023mb 29f
8:30am 3 7 mph 1023mb 29f
8:22am 3 7 mph 1023mb 29f
8:20am 3 6 mph 1023mb 29f
8:10am 5 6 mph 1023mb 29f
8:00am 5 7 mph 1023mb 29f
7:50am 5 6 mph 1022.7mb 29f
7:40am 3 5 mph 1022.7mb 29f
7:30am 5 7 mph 1022.7mb 29f
7:22am 5 8 mph 1022.7mb 29f
7:20am 3 7 mph 1022.7mb 29f
7:10am 6 8 mph 1022.7mb 29f
7:00am 2 7 mph 1022.7mb 29f
6:50am 3 7 mph 1022.7mb 29f
6:40am 2 6 mph 1022.7mb 29f
6:30am 5 7 mph 1022.7mb 29f
6:22am 5 8 mph 1022.7mb 29f
6:20am 3 8 mph 1022.7mb 29f
6:10am 2 6 mph 1022.7mb 29f
6:00am 3 5 mph 1022.7mb 29f
5:50am 5 6 mph 1023mb 28f
5:40am 5 8 mph 1023mb 29f
5:30am 3 6 mph 1022.7mb 29f
5:21am 3 9 mph 1022.7mb 28f
5:20am 3 8 mph 1022.7mb 28f
5:10am 7 8 mph 1022.7mb 28f
5:00am 5 8 mph 1022.7mb 29f
4:50am 5 6 mph 1022.7mb 29f
4:40am 5 7 mph 1022.7mb 29f
4:30am 5 9 mph 1022.7mb 29f
4:21am 5 14 mph 1022.7mb 29f
4:20am 5 9 mph 1022.7mb 29f
4:10am 9 11 mph 1022.7mb 29f
4:00am 9 10 mph 1022.7mb 29f
3:50am 6 11 mph 1023mb 29f
3:40am 8 14 mph 1023mb 29f
3:30am 9 13 mph 1023mb 29f
3:20am 9 14 mph 1023mb 29f
3:10am 7 10 mph 1023mb 29f
3:00am 7 11 mph 1023mb 29f
2:50am 6 10 mph 1023mb 29f
2:40am 8 11 mph 1023mb 29f
2:30am 9 14 mph 1023mb 29f
2:20am 7 15 mph 1023mb 29f
2:10am 7 15 mph 1023mb 29f
2:00am 11 14 mph 1023mb 29f
1:50am 8 14 mph 1023mb 29f
1:40am 10 13 mph 1023mb 29f
1:30am 10 13 mph 1023mb 29f
1:20am 11 15 mph 1023mb 30f
1:10am 7 13 mph 1023mb 30f
1:00am 9 14 mph 1023mb 30f
12:50am 9 14 mph 1023mb 30f
12:40am 13 14 mph 1022.7mb 30f
12:30am 13 15 mph 1022.7mb 30f
12:20am 7 10 mph 1022.7mb 30f
12:19am 7 18 mph 1023mb 30f
12:10am 9 16 mph 1023mb 30f
12:00am 8 17 mph 1023mb 30f
Tue 11/25 11:50pm 13 15 mph 1023mb 30f
11:40pm 10 15 mph 1023mb 29f
11:30pm 13 18 mph 1022.7mb 30f
11:20pm 15 17 mph 1023mb 30f
11:19pm 13 18 mph 1022.7mb 30f
11:10pm 9 18 mph 1022.7mb 30f
11:00pm 14 16 mph 1022.7mb 30f
10:50pm 15 18 mph 1022.7mb 30f
10:40pm 13 17 mph 1022.7mb 30f
10:30pm 14 16 mph 1022.7mb 30f
10:20pm 14 16 mph 1022.7mb 30f
10:18pm 14 20 mph 1022.7mb 30f
10:10pm 14 16 mph 1022.7mb 30f
10:00pm 14 16 mph 1022.4mb 30f
9:50pm 15 18 mph 1022.4mb 30f
9:40pm 15 18 mph 1022mb 30f
9:30pm 14 20 mph 1022mb 29f
9:20pm 16 18 mph 1021.7mb 30f
9:18pm 14 18 mph 1021.7mb 30f
9:10pm 10 16 mph 1021.7mb 30f
9:00pm 9 14 mph 1021.3mb 30f
8:50pm 11 16 mph 1021mb 30f
8:40pm 15 16 mph 1021mb 30f
8:30pm 15 18 mph 1021mb 30f
8:20pm 15 20 mph 1021mb 30f
8:18pm 15 22 mph 1021mb 30f
8:10pm 15 18 mph 1021mb 31f
8:00pm 14 16 mph 1021mb 31f
7:50pm 11 15 mph 1021mb 31f
7:40pm 13 17 mph 1021mb 31f
7:30pm 15 22 mph 1021mb 31f
7:20pm 21 24 mph 1020.7mb 31f
7:17pm 21 24 mph 1020.7mb 31f
7:10pm 20 21 mph 1020.7mb 31f
7:00pm 16 21 mph 1020.7mb 31f
6:50pm 14 18 mph 1020.3mb 31f
6:40pm 14 17 mph 1020mb 31f
6:30pm 16 21 mph 1020mb 32f
6:20pm 14 17 mph 1020mb 32f
6:17pm 15 18 mph 1020mb 32f
6:10pm 14 17 mph 1019.6mb 32f
6:00pm 15 18 mph 1019.6mb 32f
5:50pm 16 18 mph 1019.3mb 32f
5:30pm 14 16 mph 1019mb 32f
5:20pm 14 16 mph 1019mb 32f
5:16pm 14 24 mph 1019mb 32f
5:10pm 15 17 mph 1018.6mb 32f
5:00pm 16 18 mph 1018.6mb 32f
4:50pm 16 18 mph 1018.6mb 32f
4:40pm 15 18 mph 1018.6mb 33f
4:30pm 16 24 mph 1018.3mb 33f
4:20pm 20 22 mph 1018.3mb 33f
4:16pm 20 22 mph 1017.9mb 33f
4:10pm 14 16 mph 1017.9mb 33f
4:00pm 16 18 mph 1017.6mb 33f
3:50pm 16 21 mph 1017.6mb 33f
3:40pm 20 22 mph 1017.6mb 33f
3:30pm 18 22 mph 1017.3mb 33f
3:20pm 22 25 mph 1016.9mb 33f
3:16pm 23
mph
1016.9mb 33f
3:10pm 21 24 mph 1016.9mb 33f
3:00pm 24 29 mph 1016.6mb 33f
2:50pm 24 26 mph 1016.3mb 33f
2:40pm 24 26 mph 1016.3mb 33f
2:30pm 24 28 mph 1015.9mb 33f
2:20pm 22 26 mph 1015.6mb 33f
2:15pm 23
mph
1015.6mb 33f
2:10pm 21 28 mph 1015.2mb 33f
2:00pm 21 29 mph 1015.2mb 33f
1:50pm 24 26 mph 1014.9mb 33f
1:40pm 28 31 mph 1014.6mb 33f
1:37pm 24 31 mph 1014.6mb 33f
1:30pm 24 29 mph 1014.6mb 33f
1:20pm 24 29 mph 1014.2mb 33f
1:15pm 1
mph
- -
1:10pm 24 29 mph 1014.2mb 33f
1:00pm 20 25 mph 1013.9mb 33f
12:50pm 25 31 mph 1013.9mb 33f
12:40pm 26 30 mph 1013.9mb 33f
12:36pm 23 29 mph 1013.9mb 32f
12:30pm 20 24 mph 1013.5mb 32f
12:20pm 21 24 mph 1013.5mb 32f
12:14pm 21 26 mph 1013.5mb 31f
12:10pm 22 25 mph 1013.2mb 31f
12:00pm 22 25 mph 1013.2mb 31f
11:50am 22 26 mph 1013.2mb 31f
11:40am 21 24 mph 1012.9mb 31f
11:30am 20 25 mph 1012.9mb 31f
11:20am 22 26 mph 1012.9mb 31f
11:14am 25 26 mph 1012.5mb 31f
11:10am 25 31 mph 1012.5mb 31f
11:00am 26 31 mph 1012.5mb 31f
10:50am 24 30 mph 1012.2mb 31f
10:40am 25 30 mph 1012.2mb 31f
10:30am 26 31 mph 1012.2mb 31f
10:20am 26 34 mph 1011.9mb 31f
10:13am 29
mph
1011.9mb 31f
10:10am 29 32 mph 1011.9mb 31f
10:00am 26 32 mph 1011.9mb 31f
9:50am 26 34 mph 1011.9mb 31f
9:40am 26 36 mph 1011.5mb 31f
9:30am 31 36 mph 1011.2mb 31f
9:20am 28 37 mph 1010.8mb 31f
9:13am 31
mph
1010.8mb 31f
9:10am 30 37 mph 1010.8mb 31f